Galena, AK

8:56 AM AKDT on April 27, 2017 (GMT -0800)
Pitka

Weather History for PAGA - December, 2012

Change the Weather History Date:

Sunday, December 2, 2012

  Actual Average Record
Temperature  
Mean Temperature -11 °F -  
Max Temperature -5 °F 0 °F 34 °F (1992)
Min Temperature -17 °F -14 °F -52 °F (1951)
Degree Days  
Heating Degree Days 76    
Moisture  
Dew Point -16 °F    
Average Humidity 81    
Maximum Humidity 87    
Minimum Humidity 77    
Precipitation  
Precipitation 0.00 in - - ()
Sea Level Pressure  
Sea Level Pressure 29.99 in    
Wind  
Wind Speed 2 mph (ENE)    
Max Wind Speed 6 mph    
Max Gust Speed -    
Visibility 5 miles    
Events Fog , Snow    
Averages and records for this station are not official NWS values.
T = Trace of Precipitation, MM = Missing Value Source: NWS Daily Summary

Daily Weather History Graph

Daily Weather History Graph

Search for Another Location

Airport or City:

Trip Planner

Search our weather history database for the weather conditions in past years. The results will help you decide how hot, cold, wet, or windy it might be!

Date:

Astronomy

Dec. 02, 2012 Rise Set
Actual Time 10:59 AM AKST 3:35 PM AKST
Civil Twilight 9:43 AM AKST 4:50 PM AKST
Nautical Twilight 8:35 AM AKST 5:59 PM AKST
Astronomical Twilight 7:35 AM AKST 6:59 PM AKST
Moon 8:31 PM AKST (12/2) 1:04 PM AKST (12/2)
Length of Visible Light 7h 07m
Length of Day
4h 35m
Waning Gibbous, 84% of the Moon is Illuminated
Dec 2
Waning Gibbous
Dec 6
Last Quarter
Dec 12
New
Dec 19
First Quarter
Dec 28
Full

Hourly Weather History & Observations

Time (AKST) Temp. Windchill Dew Point Humidity Pressure Visibility Wind Dir Wind Speed Gust Speed Precip Events Conditions
12:37 AM -14.8 °F - -20.2 °F 77% 29.96 in 10.0 mi Calm Calm - N/A   Overcast
12:58 AM -15.0 °F -25.0 °F -18.9 °F 82% 29.98 in 3.0 mi East 3.5 mph - N/A   Overcast
1:03 AM -14.8 °F - -18.4 °F 84% 29.96 in 2.0 mi Calm Calm - N/A   Overcast
1:08 AM -14.8 °F - -18.4 °F 84% 29.96 in 1.2 mi Calm Calm - N/A   Overcast
1:14 AM -14.8 °F - -18.4 °F 84% 29.96 in 0.8 mi Calm Calm - N/A   Overcast
1:20 AM -14.8 °F - -18.4 °F 84% 29.96 in 1.0 mi Calm Calm - N/A   Overcast
1:25 AM -14.8 °F -24.8 °F -18.4 °F 84% 29.95 in 0.8 mi ESE 3.5 mph - N/A   Overcast
1:30 AM -14.8 °F -27.2 °F -18.4 °F 84% 29.95 in 0.5 mi ESE 4.6 mph - N/A Fog Light Freezing Fog
1:58 AM -14.1 °F -28.3 °F -18.0 °F 82% 29.97 in 0.5 mi East 5.8 mph - 0.00 in Fog , Snow Light Snow
2:42 AM -13.0 °F - -16.6 °F 84% 29.94 in 0.5 mi Calm Calm - 0.00 in Fog Light Freezing Fog
2:48 AM -13.0 °F - -16.6 °F 84% 29.94 in 1.0 mi Calm Calm - 0.00 in   Overcast
2:52 AM -11.2 °F - -16.6 °F 77% 29.94 in 2.5 mi Calm Calm - 0.00 in   Haze
2:56 AM -11.2 °F - -16.6 °F 77% 29.94 in 4.0 mi Calm Calm - 0.00 in   Overcast
2:58 AM -11.9 °F - -16.1 °F 82% 29.96 in 4.0 mi Calm Calm - 0.00 in   Overcast
3:03 AM -11.2 °F - -16.6 °F 77% 29.94 in 5.0 mi Calm Calm - N/A   Overcast
3:58 AM -11.0 °F - -15.0 °F 83% 29.96 in 6.0 mi Calm Calm - N/A   Overcast
4:37 AM -9.4 °F -18.6 °F -14.8 °F 77% 29.93 in 2.0 mi East 3.5 mph - 0.00 in Snow Light Snow
4:43 AM -9.4 °F -18.6 °F -14.8 °F 77% 29.93 in 3.0 mi East 3.5 mph - 0.00 in Snow Light Snow
4:47 AM -11.2 °F -20.6 °F -14.8 °F 84% 29.94 in 2.0 mi East 3.5 mph - 0.00 in Snow Light Snow
4:58 AM -9.9 °F -19.2 °F -14.1 °F 82% 29.96 in 2.5 mi East 3.5 mph - 0.00 in Snow Light Snow
5:03 AM -9.4 °F -18.6 °F -14.8 °F 77% 29.93 in 1.0 mi East 3.5 mph - 0.00 in Snow Light Snow
5:14 AM -9.4 °F - -14.8 °F 77% 29.94 in 1.5 mi Calm Calm - 0.00 in Snow Light Snow
5:36 AM -9.4 °F -18.6 °F -14.8 °F 77% 29.93 in 2.5 mi ESE 3.5 mph - 0.00 in Snow Light Snow
5:49 AM -9.4 °F -18.6 °F -14.8 °F 77% 29.93 in 4.0 mi East 3.5 mph - 0.00 in Snow Light Snow
5:58 AM -9.9 °F -21.5 °F -14.1 °F 82% 29.96 in 4.0 mi East 4.6 mph - 0.00 in Snow Light Snow
6:05 AM -9.4 °F -20.9 °F -13.0 °F 84% 29.93 in 2.5 mi ESE 4.6 mph - 0.00 in Snow Light Snow
6:14 AM -9.4 °F -18.6 °F -13.0 °F 84% 29.93 in 3.0 mi ESE 3.5 mph - 0.00 in Snow Light Snow
6:54 AM -9.4 °F - -13.0 °F 84% 29.94 in 7.0 mi Calm Calm - 0.00 in Snow Light Snow
6:58 AM -9.0 °F - -13.0 °F 83% 29.97 in 7.0 mi Calm Calm - 0.00 in Snow Light Snow
7:49 AM -7.6 °F - -11.2 °F 84% 29.94 in 8.0 mi Calm Calm - 0.00 in Snow Light Snow
7:58 AM -9.0 °F - -13.0 °F 83% 29.96 in 8.0 mi Calm Calm - 0.00 in Snow Light Snow
8:58 AM -9.0 °F - -13.0 °F 83% 29.97 in 6.0 mi Calm Calm - 0.00 in Snow Light Snow
9:58 AM -9.0 °F - -13.0 °F 83% 29.98 in 10.0 mi Calm Calm - 0.00 in   Overcast
10:07 AM -7.6 °F -16.5 °F -11.2 °F 84% 29.96 in 9.0 mi West 3.5 mph - N/A   Overcast
10:58 AM -8.0 °F - -11.9 °F 83% 30.00 in 8.0 mi Calm Calm - 0.00 in   Overcast
11:58 AM -6.0 °F - -9.9 °F 83% 30.01 in 10.0 mi Calm Calm - N/A   Overcast
12:31 PM -5.8 °F -16.7 °F -9.4 °F 84% 29.99 in 5.0 mi WNW 4.6 mph - 0.00 in Snow Light Snow
12:58 PM -5.1 °F -13.6 °F -8.0 °F 87% 30.03 in 8.0 mi NNW 3.5 mph - 0.00 in Snow Light Snow
1:58 PM -5.1 °F - -9.0 °F 83% 30.03 in 10.0 mi Calm Calm - 0.00 in   Clear
2:58 PM -8.0 °F - -11.9 °F 83% 30.05 in 10.0 mi Calm Calm - N/A   Clear
3:58 PM -11.0 °F -20.4 °F -15.0 °F 83% 30.06 in 10.0 mi NW 3.5 mph - N/A   Clear
4:58 PM -13.0 °F -27.0 °F -18.0 °F 78% 30.09 in 10.0 mi WNW 5.8 mph - N/A   Clear
5:58 PM -14.1 °F -23.9 °F -18.9 °F 79% 30.10 in 10.0 mi North 3.5 mph - N/A   Clear
6:58 PM -15.0 °F -27.4 °F -20.0 °F 78% 30.12 in 10.0 mi NNW 4.6 mph - N/A   Clear
7:58 PM -14.1 °F - -18.0 °F 82% 30.14 in 10.0 mi Calm Calm - N/A   Clear
8:58 PM -15.0 °F - -20.0 °F 78% 30.15 in 10.0 mi Calm Calm - N/A   Clear
9:58 PM -16.1 °F - -20.9 °F 79% 30.17 in 10.0 mi Calm Calm - N/A   Clear
10:58 PM -17.0 °F -29.7 °F -22.0 °F 78% 30.18 in 10.0 mi West 4.6 mph - N/A   Clear
11:58 PM -17.0 °F -29.7 °F -22.0 °F 78% 30.20 in 10.0 mi WNW 4.6 mph - N/A   Clear